EW3662 Weather Reports


Display with metric or nautical units.
time (UTC)temp
F
wind
direction
speed
MPH
gust
MPH
rain 1hr
in
rain 24hr
in
rain mn
in
humidity
%
barometer
mb
20260906023103 76 0 4.0 8.0 0.00 0.00 0.00 42 1016.9
20260906022331 76 0 4.0 9.0 0.00 0.00 0.00 45 1016.8
20260906021832 76 0 3.0 9.0 0.00 0.00 0.00 43 1016.9
20260906021330 76 0 1.0 5.0 0.00 0.00 0.00 44 1016.8
20260906020828 76 0 2.0 6.0 0.00 0.00 0.00 42 1016.8
20260906020329 77 0 3.0 6.0 0.00 0.00 0.00 45 1016.7
20260906015828 78 0 3.0 6.0 0.00 0.00 0.00 44 1016.6
20260906015328 78 0 4.0 8.0 0.00 0.00 0.00 43 1016.5
20260906014828 78 0 4.0 8.0 0.00 0.00 0.00 43 1016.2
20260906014326 79 0 4.0 7.0 0.00 0.00 0.00 43 1016.4
20260906013828 79 0 4.0 7.0 0.00 0.00 0.00 39 1016.2
20260906013325 80 0 4.0 9.0 0.00 0.00 0.00 39 1016.2
20260906012824 80 0 4.0 9.0 0.00 0.00 0.00 38 1016.2
20260906012318 80 0 4.0 9.0 0.00 0.00 0.00 37 1016.4
20260906011819 81 0 5.0 9.0 0.00 0.00 0.00 37 1016.4
20260906011317 81 0 5.0 11.0 0.00 0.00 0.00 38 1016.4
20260906010812 81 0 5.0 11.0 0.00 0.00 0.00 37 1016.4
20260906010314 82 0 6.0 11.0 0.00 0.00 0.00 36 1016.4
20260906010043 82 0 7.0 11.0 0.00 0.00 0.00 35 1016.4
20260906005313 82 0 7.0 12.0 0.00 0.00 0.00 36 1016.4
20260906004817 83 0 8.0 14.0 0.00 0.00 0.00 36 1016.4
20260906004812 83 0 8.0 12.0 0.00 0.00 0.00 36 1016.4
20260906003810 83 0 9.0 19.0 0.00 0.00 0.00 35 1016.4
20260906003311 84 0 11.0 19.0 0.00 0.00 0.00 34 1016.2
20260906002811 84 0 11.0 19.0 0.00 0.00 0.00 33 1016.2
20260906002310 85 0 12.0 21.0 0.00 0.00 0.00 32 1016.2
20260906001810 86 0 12.0 21.0 0.00 0.00 0.00 31 1016.1
20260906001311 87 0 9.0 18.0 0.00 0.00 0.00 32 1016.0
20260906000809 87 0 5.0 14.0 0.00 0.00 0.00 31 1016.1
20260906000308 88 0 3.0 6.0 0.00 0.00 0.00 33 1016.0
20260905235808 89 0 2.0 5.0 0.00 0.00 0.00 33 1016.0
20260905235540 89 0 1.0 5.0 0.00 0.00 0.00 29 1016.0
20260905235041 90 0 1.0 4.0 0.00 0.00 0.00 32 1015.9
20260905234309 91 0 1.0 3.0 0.00 0.00 0.00 30 1015.9
20260905233809 91 0 1.0 3.0 0.00 0.00 0.00 28 1015.9
20260905233307 91 0 1.0 3.0 0.00 0.00 0.00 26 1015.9
20260905232808 92 0 0.0 2.0 0.00 0.00 0.00 29 1015.8
20260905232306 92 0 1.0 5.0 0.00 0.00 0.00 25 1015.8
20260905231806 92 0 2.0 6.0 0.00 0.00 0.00 26 1015.7
20260905231306 93 0 3.0 6.0 0.00 0.00 0.00 23 1015.6
20260905230806 93 0 2.0 6.0 0.00 0.00 0.00 24 1015.6
20260905230306 93 0 3.0 7.0 0.00 0.00 0.00 24 1015.4
20260905225806 94 0 4.0 8.0 0.00 0.00 0.00 21 1015.4
20260905225307 94 0 2.0 8.0 0.00 0.00 0.00 22 1015.3
20260905224806 94 0 1.0 5.0 0.00 0.00 0.00 25 1015.3
20260905224306 94 0 3.0 8.0 0.00 0.00 0.00 23 1015.3
20260905223804 94 0 5.0 8.0 0.00 0.00 0.00 24 1015.3
20260905223535 95 0 4.0 9.0 0.00 0.00 0.00 20 1015.3
20260905222804 95 0 4.0 9.0 0.00 0.00 0.00 21 1015.3
20260905222306 95 0 4.0 9.0 0.00 0.00 0.00 23 1015.3
20260905222035 95 0 4.0 9.0 0.00 0.00 0.00 22 1015.4
20260905221305 95 148 5.0 9.0 0.00 0.00 0.00 22 1015.4
20260905220806 95 0 5.0 9.0 0.00 0.00 0.00 23 1015.4
20260905220304 95 0 4.0 8.0 0.00 0.00 0.00 21 1015.4
20260905215804 95 0 3.0 7.0 0.00 0.00 0.00 24 1015.4
20260905215306 95 0 5.0 12.0 0.00 0.00 0.00 27 1015.4
20260905215035 95 0 5.0 12.0 0.00 0.00 0.00 23 1015.7
20260905214305 95 0 6.0 13.0 0.00 0.00 0.00 22 1015.8
20260905213802 95 0 6.0 13.0 0.00 0.00 0.00 23 1015.8
20260905213535 95 0 4.0 13.0 0.00 0.00 0.00 23 1015.9
20260905212804 95 0 3.0 9.0 0.00 0.00 0.00 24 1015.9
20260905212305 95 0 5.0 9.0 0.00 0.00 0.00 22 1016.0
20260905212035 95 0 4.0 9.0 0.00 0.00 0.00 22 1016.0
20260905211301 95 0 4.0 10.0 0.00 0.00 0.00 24 1016.0
20260905210759 95 0 6.0 11.0 0.00 0.00 0.00 23 1016.1
20260905210258 94 0 6.0 13.0 0.00 0.00 0.00 23 1016.2
20260905205759 94 0 5.0 13.0 0.00 0.00 0.00 23 1016.2
20260905205256 94 0 5.0 12.0 0.00 0.00 0.00 23 1016.4
20260905204758 94 0 7.0 13.0 0.00 0.00 0.00 25 1016.4
20260905204253 94 0 8.0 14.0 0.00 0.00 0.00 24 1016.2
20260905204023 94 0 7.0 14.0 0.00 0.00 0.00 23 1016.4
20260905203250 94 0 7.0 15.0 0.00 0.00 0.00 24 1016.5
20260905202750 94 0 8.0 15.0 0.00 0.00 0.00 22 1016.6
20260905202252 94 0 6.0 14.0 0.00 0.00 0.00 26 1016.6
20260905201750 94 0 5.0 12.0 0.00 0.00 0.00 25 1016.5
20260905201524 94 0 6.0 12.0 0.00 0.00 0.00 25 1016.6
20260905201023 94 0 6.0 12.0 0.00 0.00 0.00 23 1016.6
20260905200250 94 0 6.0 13.0 0.00 0.00 0.00 26 1016.7
20260905195750 94 0 6.0 13.0 0.00 0.00 0.00 27 1016.8
20260905195518 94 0 6.0 12.0 0.00 0.00 0.00 24 1016.8
20260905194750 94 0 7.0 14.0 0.00 0.00 0.00 22 1016.8
20260905194248 94 0 6.0 14.0 0.00 0.00 0.00 23 1016.8
20260905193748 94 0 5.0 12.0 0.00 0.00 0.00 23 1016.9
20260905193249 93 0 6.0 15.0 0.00 0.00 0.00 25 1016.9
20260905192749 93 0 8.0 17.0 0.00 0.00 0.00 23 1016.9
20260905192246 93 0 7.0 17.0 0.00 0.00 0.00 25 1017.1
20260905191747 93 0 5.0 10.0 0.00 0.00 0.00 28 1016.9
20260905191246 93 0 5.0 11.0 0.00 0.00 0.00 23 1016.9
20260905191135 92 0 6.0 12.0 0.00 0.00 0.00 29 1017.1
20260905191023 92 0 6.0 11.0 0.00 0.00 0.00 24 1017.1
20260905185746 91 0 5.0 12.0 0.00 0.00 0.00 27 1017.1
20260905185247 90 0 3.0 8.0 0.00 0.00 0.00 27 1017.2
20260905184747 90 0 2.0 8.0 0.00 0.00 0.00 26 1017.3
20260905184246 91 0 3.0 9.0 0.00 0.00 0.00 31 1017.4
20260905183746 91 0 6.0 11.0 0.00 0.00 0.00 24 1017.4
20260905183514 92 0 5.0 14.0 0.00 0.00 0.00 27 1017.4
20260905182745 92 0 4.0 14.0 0.00 0.00 0.00 25 1017.3
20260905182515 92 0 2.0 10.0 0.00 0.00 0.00 23 1017.4
20260905181744 92 0 1.0 7.0 0.00 0.00 0.00 26 1017.5
20260905181515 92 9 2.0 8.0 0.00 0.00 0.00 29 1017.6
20260905180745 92 0 3.0 8.0 0.00 0.00 0.00 31 1017.8
20260905180244 92 0 2.0 5.0 0.00 0.00 0.00 30 1017.8
20260905175745 91 0 1.0 5.0 0.00 0.00 0.00 25 1017.8
20260905175245 91 0 1.0 9.0 0.00 0.00 0.00 27 1017.9
20260905174742 91 0 2.0 9.0 0.00 0.00 0.00 28 1017.9
20260905174243 91 0 2.0 7.0 0.00 0.00 0.00 29 1017.8
20260905174014 91 0 2.0 7.0 0.00 0.00 0.00 26 1017.9
20260905173514 91 0 2.0 6.0 0.00 0.00 0.00 28 1017.8
20260905172744 90 0 1.0 5.0 0.00 0.00 0.00 25 1017.9
20260905172242 90 0 1.0 3.0 0.00 0.00 0.00 29 1018.0
20260905171743 90 0 2.0 5.0 0.00 0.00 0.00 24 1018.1
20260905171242 90 0 2.0 5.0 0.00 0.00 0.00 31 1018.1
20260905170743 89 0 2.0 6.0 0.00 0.00 0.00 27 1018.1
20260905170515 89 0 2.0 6.0 0.00 0.00 0.00 31 1018.1
20260905170014 89 0 1.0 6.0 0.00 0.00 0.00 35 1018.1
20260905165240 89 0 1.0 5.0 0.00 0.00 0.00 31 1018.0
20260905164739 89 0 1.0 5.0 0.00 0.00 0.00 29 1018.1
20260905164239 88 0 1.0 6.0 0.00 0.00 0.00 28 1018.1
20260905163741 87 0 1.0 6.0 0.00 0.00 0.00 26 1018.0
20260905163242 87 0 1.0 6.0 0.00 0.00 0.00 29 1018.1
20260905162742 87 0 1.0 4.0 0.00 0.00 0.00 27 1018.1
20260905162241 87 0 1.0 4.0 0.00 0.00 0.00 32 1018.0
20260905161740 86 0 0.0 4.0 0.00 0.00 0.00 32 1018.1
20260905161238 86 0 0.0 2.0 0.00 0.00 0.00 35 1018.1
20260905160737 86 15 0.0 2.0 0.00 0.00 0.00 30 1018.1
20260905160507 85 0 0.0 2.0 0.00 0.00 0.00 31 1018.1
20260905155736 83 0 0.0 0.0 0.00 0.00 0.00 37 1018.2
20260905155238 82 0 0.0 0.0 0.00 0.00 0.00 35 1018.1
20260905155007 81 0 0.0 0.0 0.00 0.00 0.00 39 1018.1
20260905154237 79 0 0.0 0.0 0.00 0.00 0.00 38 1018.1
20260905153738 78 0 0.0 0.0 0.00 0.00 0.00 45 1018.1
20260905153238 77 0 0.0 0.0 0.00 0.00 0.00 46 1018.1
20260905152738 76 0 0.0 0.0 0.00 0.00 0.00 45 1018.1
20260905152237 74 0 0.0 2.0 0.00 0.00 0.00 46 1018.1
20260905151737 73 0 0.0 2.0 0.00 0.00 0.00 48 1018.1
20260905151237 72 0 0.0 2.0 0.00 0.00 0.00 51 1018.1
20260905150738 71 0 0.0 2.0 0.00 0.00 0.00 52 1018.1
20260905150237 70 0 0.0 3.0 0.00 0.00 0.00 54 1018.1
20260905145737 69 0 0.0 3.0 0.00 0.00 0.00 56 1018.1
20260905145237 67 0 0.0 2.0 0.00 0.00 0.00 56 1018.2
20260905145008 66 0 0.0 2.0 0.00 0.00 0.00 55 1018.2
20260905144508 66 0 0.0 2.0 0.00 0.00 0.00 56 1018.2
20260905143737 65 0 0.0 2.0 0.00 0.00 0.00 56 1018.2
20260905143237 65 0 0.0 1.0 0.00 0.00 0.00 59 1018.2
20260905142736 64 0 0.0 0.0 0.00 0.00 0.00 61 1018.1
20260905142507 64 0 0.0 0.0 0.00 0.00 0.00 64 1018.1
20260905142008 63 0 0.0 0.0 0.00 0.00 0.00 61 1018.0
20260905141238 63 0 0.0 0.0 0.00 0.00 0.00 62 1018.0
20260905140738 62 0 0.0 0.0 0.00 0.00 0.00 65 1017.9
20260905140236 62 0 0.0 0.0 0.00 0.00 0.00 67 1017.9
20260905140006 62 0 0.0 0.0 0.00 0.00 0.00 67 1017.8
20260905135233 62 0 0.0 0.0 0.00 0.00 0.00 68 1017.9
20260905134733 61 0 0.0 0.0 0.00 0.00 0.00 68 1017.9
20260905134234 61 0 0.0 0.0 0.00 0.00 0.00 69 1017.9
20260905134006 61 0 0.0 2.0 0.00 0.00 0.00 70 1018.0
20260905133234 61 0 0.0 2.0 0.00 0.00 0.00 70 1017.9
20260905132732 60 0 0.0 2.0 0.00 0.00 0.00 70 1017.9
20260905132231 60 0 0.0 2.0 0.00 0.00 0.00 71 1017.8
20260905131731 60 0 0.0 1.0 0.00 0.00 0.00 69 1017.8
20260905131231 60 0 0.0 1.0 0.00 0.00 0.00 68 1017.6
20260905130729 60 0 0.0 0.0 0.00 0.00 0.00 67 1017.5
20260905130230 59 0 0.0 0.0 0.00 0.00 0.00 66 1017.6
20260905125728 59 0 0.0 0.0 0.00 0.00 0.00 66 1017.5
20260905125228 59 0 0.0 0.0 0.00 0.00 0.00 67 1017.4
20260905124730 59 0 0.0 1.0 0.00 0.00 0.00 66 1017.2
20260905124229 59 0 0.0 1.0 0.00 0.00 0.00 67 1017.2
20260905123727 59 0 0.0 0.0 0.00 0.00 0.00 67 1017.2
20260905123459 60 0 0.0 1.0 0.00 0.00 0.00 66 1017.2
20260905122959 60 0 0.0 1.0 0.00 0.00 0.00 67 1017.2
20260905122226 60 0 0.0 1.0 0.00 0.00 0.00 66 1017.2
20260905121723 60 0 0.0 1.0 0.00 0.00 0.00 63 1017.2
20260905121224 60 0 0.0 0.0 0.00 0.00 0.00 65 1017.2
20260905120724 60 0 0.0 1.0 0.00 0.00 0.00 66 1017.2
20260905120223 60 0 0.0 1.0 0.00 0.00 0.00 66 1017.2
20260905115722 61 0 0.0 1.0 0.00 0.00 0.00 65 1017.3
20260905115222 61 0 0.0 1.0 0.00 0.00 0.00 64 1017.2
20260905114723 61 0 0.0 2.0 0.00 0.00 0.00 63 1017.2
20260905114224 61 0 0.0 2.0 0.00 0.00 0.00 64 1017.2
20260905113722 61 0 0.0 1.0 0.00 0.00 0.00 64 1017.2
20260905113220 61 0 0.0 2.0 0.00 0.00 0.00 66 1017.2
20260905112720 61 0 1.0 2.0 0.00 0.00 0.00 67 1017.3
20260905112220 61 0 0.0 2.0 0.00 0.00 0.00 66 1017.3
20260905111720 61 0 0.0 1.0 0.00 0.00 0.00 67 1017.4
20260905111222 61 0 0.0 1.0 0.00 0.00 0.00 64 1017.4
20260905110718 62 0 0.0 2.0 0.00 0.00 0.00 64 1017.4
20260905110220 62 0 1.0 2.0 0.00 0.00 0.00 63 1017.4
20260905105719 62 0 1.0 2.0 0.00 0.00 0.00 63 1017.4
20260905105217 62 0 0.0 2.0 0.00 0.00 0.00 63 1017.2
20260905104716 62 0 0.0 2.0 0.00 0.00 0.00 64 1017.1
20260905104217 62 0 0.0 0.0 0.00 0.00 0.00 59 1017.1
20260905103949 63 0 0.0 0.0 0.00 0.00 0.00 60 1017.1
20260905103214 63 0 0.0 1.0 0.00 0.00 0.00 61 1017.1
20260905102716 63 0 0.0 2.0 0.00 0.00 0.00 58 1017.1
20260905102216 63 0 0.0 2.0 0.00 0.00 0.00 57 1017.1
20260905101714 63 0 0.0 2.0 0.00 0.00 0.00 57 1017.1
20260905101445 63 0 1.0 2.0 0.00 0.00 0.00 57 1017.1
20260905100714 63 0 1.0 2.0 0.00 0.00 0.00 57 1016.9
20260905100214 63 0 1.0 2.0 0.00 0.00 0.00 57 1017.1
20260905095715 63 0 1.0 2.0 0.00 0.00 0.00 57 1016.9
20260905095215 63 0 1.0 2.0 0.00 0.00 0.00 58 1016.9
20260905094715 63 0 1.0 2.0 0.00 0.00 0.00 59 1016.9
20260905094216 62 0 1.0 2.0 0.00 0.00 0.00 58 1016.9
20260905093716 63 0 1.0 2.0 0.00 0.00 0.00 58 1016.8
20260905093214 63 0 1.0 2.0 0.00 0.00 0.00 59 1016.7
20260905092715 63 0 1.0 2.0 0.00 0.00 0.00 60 1016.6
20260905092215 63 0 1.0 3.0 0.00 0.00 0.00 59 1016.7
20260905091715 63 0 1.0 3.0 0.00 0.00 0.00 59 1016.7
20260905091214 63 0 1.0 2.0 0.00 0.00 0.00 57 1016.7
20260905090714 63 0 1.0 2.0 0.00 0.00 0.00 59 1016.6
20260905090214 64 0 1.0 2.0 0.00 0.00 0.00 59 1016.6
20260905085715 64 0 1.0 2.0 0.00 0.00 0.00 56 1016.7
20260905085219 64 296 1.0 2.0 0.00 0.00 0.00 57 1016.5
20260905085215 64 0 1.0 2.0 0.00 0.00 0.00 56 1016.6
20260905084215 63 0 1.0 2.0 0.00 0.00 0.00 57 1016.5
20260905083715 63 0 1.0 2.0 0.00 0.00 0.00 59 1016.6
20260905083216 63 297 1.0 2.0 0.00 0.00 0.00 59 1016.6
20260905082715 63 0 1.0 2.0 0.00 0.00 0.00 60 1016.5
20260905082214 63 297 1.0 2.0 0.00 0.00 0.00 60 1016.6
20260905081714 64 0 1.0 2.0 0.00 0.00 0.00 59 1016.5
20260905081216 64 0 0.0 2.0 0.00 0.00 0.00 59 1016.5
20260905080714 64 0 0.0 3.0 0.00 0.00 0.00 61 1016.6
20260905080215 64 0 1.0 3.0 0.00 0.00 0.00 59 1016.6
20260905075715 64 0 1.0 3.0 0.00 0.00 0.00 60 1016.6
20260905075448 64 0 1.0 3.0 0.00 0.00 0.00 60 1016.5
20260905074714 64 0 1.0 2.0 0.00 0.00 0.00 61 1016.6
20260905074216 65 0 1.0 2.0 0.00 0.00 0.00 62 1016.6
20260905073715 65 0 0.0 2.0 0.00 0.00 0.00 61 1016.6
20260905073215 65 0 0.0 2.0 0.00 0.00 0.00 61 1016.4
20260905072945 66 0 0.0 2.0 0.00 0.00 0.00 65 1016.2
20260905072216 66 0 0.0 2.0 0.00 0.00 0.00 61 1016.2
20260905071715 66 0 0.0 2.0 0.00 0.00 0.00 61 1016.2
20260905071215 67 0 0.0 2.0 0.00 0.00 0.00 62 1016.2
20260905070715 67 0 0.0 2.0 0.00 0.00 0.00 59 1016.2
20260905070216 67 0 0.0 2.0 0.00 0.00 0.00 59 1016.1
20260905065714 67 0 1.0 2.0 0.00 0.00 0.00 59 1016.1
20260905065215 67 0 0.0 1.0 0.00 0.00 0.00 59 1016.1
20260905064716 68 0 0.0 0.0 0.00 0.00 0.00 60 1016.1
20260905064445 68 0 0.0 2.0 0.00 0.00 0.00 57 1016.1
20260905063716 68 0 0.0 2.0 0.00 0.00 0.00 56 1016.0
20260905063215 68 0 0.0 2.0 0.00 0.00 0.00 55 1016.1
20260905062715 68 0 0.0 2.0 0.00 0.00 0.00 55 1016.1
20260905062216 69 0 1.0 2.0 0.00 0.00 0.00 54 1016.1
20260905061714 69 0 1.0 2.0 0.00 0.00 0.00 55 1016.0
20260905061446 69 0 1.0 2.0 0.00 0.00 0.00 55 1016.0
20260905060946 69 0 0.0 2.0 0.00 0.00 0.00 54 1016.1
20260905060215 69 0 0.0 2.0 0.00 0.00 0.00 54 1016.1
20260905055947 69 0 0.0 0.0 0.00 0.00 0.00 54 1016.1
20260905055216 69 0 0.0 0.0 0.00 0.00 0.00 57 1016.2
20260905054715 70 0 0.0 0.0 0.00 0.00 0.00 60 1016.2
20260905054448 70 0 0.0 0.0 0.00 0.00 0.00 58 1016.1
20260905053716 70 0 0.0 0.0 0.00 0.00 0.00 51 1016.1
20260905053215 70 0 0.0 0.0 0.00 0.00 0.00 53 1016.1
20260905052715 71 0 0.0 0.0 0.00 0.00 0.00 54 1016.1
20260905052215 71 0 0.0 1.0 0.00 0.00 0.00 50 1016.1
20260905051716 71 0 0.0 1.0 0.00 0.00 0.00 52 1016.1
20260905051215 72 0 0.0 1.0 0.00 0.00 0.00 51 1016.2
20260905050716 72 0 0.0 1.0 0.00 0.00 0.00 52 1016.2
20260905050215 72 0 1.0 4.0 0.00 0.00 0.00 53 1016.2
20260905045714 73 0 2.0 7.0 0.00 0.00 0.00 49 1016.1
20260905045216 73 0 2.0 7.0 0.00 0.00 0.00 50 1016.4
20260905044715 73 0 2.0 6.0 0.00 0.00 0.00 52 1016.5
20260905044215 73 0 1.0 6.0 0.00 0.00 0.00 49 1016.5
20260905043714 73 0 0.0 2.0 0.00 0.00 0.00 47 1016.5
20260905043216 73 0 1.0 3.0 0.00 0.00 0.00 45 1016.2
20260905042714 72 0 1.0 3.0 0.00 0.00 0.00 47 1016.2
20260905042216 72 0 1.0 3.0 0.00 0.00 0.00 49 1016.4
20260905041714 72 0 1.0 2.0 0.00 0.00 0.00 53 1016.5
20260905041215 72 0 1.0 3.0 0.00 0.00 0.00 51 1016.5
20260905040715 71 0 1.0 3.0 0.00 0.00 0.00 53 1016.5
20260905040446 71 0 0.0 0.0 0.00 0.00 0.00 57 1016.5
20260905035716 71 0 0.0 0.0 0.00 0.00 0.00 57 1016.4
20260905035216 71 0 0.0 0.0 0.00 0.00 0.00 53 1016.2
20260905034713 71 0 0.0 2.0 0.00 0.00 0.00 51 1016.2
20260905034214 71 0 0.0 2.0 0.00 0.00 0.00 51 1016.2
20260905033712 71 0 0.0 2.0 0.00 0.00 0.00 52 1016.2
20260905033212 71 0 0.0 2.0 0.00 0.00 0.00 55 1016.1
20260905032714 71 0 0.0 1.0 0.00 0.00 0.00 54 1016.1
20260905032213 72 0 0.0 1.0 0.00 0.00 0.00 63 1016.0
20260905031712 72 0 0.0 0.0 0.00 0.00 0.00 60 1016.0
20260905031211 72 0 0.0 0.0 0.00 0.00 0.00 61 1016.0
20260905030712 72 0 0.0 0.0 0.00 0.00 0.00 61 1015.9
20260905030210 73 0 0.0 0.0 0.00 0.00 0.00 61 1015.9
20260905025711 73 0 0.0 0.0 0.00 0.00 0.00 54 1015.9
20260905025210 73 0 0.0 0.0 0.00 0.00 0.00 52 1015.8
20260905024710 74 0 0.0 0.0 0.00 0.00 0.00 46 1015.8
20260905024440 74 0 0.0 1.0 0.00 0.00 0.00 48 1015.7
20260905023710 75 0 0.0 1.0 0.00 0.00 0.00 54 1015.6
20260905023211 76 0 0.0 0.0 0.00 0.00 0.00 55 1015.6